Location: Buffign�court
(47.8126°N, 6.0176°E)
Time: 14:53:40
(UTC+00:00)

SJ 16-02 - Pass Details

Date: 16 June 2021
Orbit: 606 x 616 km, 75.0° (Epoch: 01 August)

Event Time Altitude Azimuth Distance (km) Brightness Sun altitude
Rises 22:10:29 0° 355° (N) 2,878 6.3 -16.2°
Reaches altitude 10° 22:15:08 10° 40° (NE) 1,966 4.3 -16.5°
Maximum altitude 22:15:38 10° 46° (NE) 1,954 4.2 -16.5°
Drops below altitude 10° 22:16:08 10° 53° (NE) 1,964 4.1 -16.5°
Enters shadow 22:20:07 - 94° (E) 2,676 4.4 -16.8°
